User: anonymous   Login
Location: Ar Ranvel
(48.3000°N, 4.8833°W)
Time: 21:36:15
(UTC+00:00)
Language:

COSMOS 2251 DEB - Orbit

View from above orbital plane
View from above orbital plane
View from above satellite
View from above satellite

Ground track
Ground track

The orbit data is extracted from the following two-line orbital elements,

1 35895U 93036AUJ 22017.43303434  .00001207  00000-0  78359-3 0  9992
2 35895  74.0525 278.3410 0223432 346.6478  12.8795 13.92192364401977
Epoch (UTC): 17 January 2022 10:23:34
Eccentricity: 0.0223432
inclination: 74.0525°
perigee height: 758 km
apogee height: 1084 km
right ascension of ascending node: 278.3410°
argument of perigee: 346.6478°
revolutions per day: 13.92192364
mean anomaly at epoch: 12.8795°
orbit number at epoch: 40197

The dashed part of the orbit path shows where the satellite is in the earth's shadow,  

DLR